Puerto Plata, Dominican Republic

6:47 AM AST on January 16, 2018 (GMT -0400)
Gregorio Luperon International

Weather History for MDPP - October, 2011

Change the Weather History Date:

Wednesday, October 5, 2011

  Actual Average Record
Temperature  
Mean Temperature 80 °F -  
Max Temperature 89 °F 86 °F 95 °F (1996)
Min Temperature 70 °F 73 °F 68 °F (2014)
Cooling Degree Days 14    
Growing Degree Days 30 (Base 50)    
Moisture  
Dew Point 76 °F    
Average Humidity 79    
Maximum Humidity 94    
Minimum Humidity 58    
Precipitation  
Precipitation 0.00 in - - ()
Sea Level Pressure  
Sea Level Pressure 29.92 in    
Wind  
Wind Speed 4 mph ()    
Max Wind Speed 14 mph    
Max Gust Speed -    
Visibility 7.5 miles    
Events      
Averages and records for this station are not official NWS values.
T = Trace of Precipitation, MM = Missing Value Source: Averaged Metar Reports

Daily Weather History Graph

Daily Weather History Graph

Search for Another Location

Airport or City:

Trip Planner

Search our weather history database for the weather conditions in past years. The results will help you decide how hot, cold, wet, or windy it might be!

Date:

Astronomy

Oct. 05, 2011 Rise Set
Actual Time 6:33 AM AST 6:27 PM AST
Civil Twilight 6:11 AM AST 6:49 PM AST
Nautical Twilight 5:46 AM AST 7:14 PM AST
Astronomical Twilight 5:20 AM AST 7:40 PM AST
Moon 2:23 PM AST (10/5) 1:04 AM AST (10/5)
Length of Visible Light 12h 37m
Length of Day
11h 53m
Waxing Gibbous, 66% of the Moon is Illuminated
Oct 5
Waxing Gibbous
Oct 11
Full
Oct 19
Last Quarter
Oct 26
New
Nov 2
First Quarter

Hourly Weather History & Observations

Time (AST) Temp. Heat Index Dew Point Humidity Pressure Visibility Wind Dir Wind Speed Gust Speed Precip Events Conditions
2:00 AM 76 °F - 73 °F 88% 29.99 in 10 mi Calm Calm - -   Scattered Clouds
2:00 AM 75.2 °F - 73.4 °F 94% 29.98 in 6.2 mi Calm Calm - N/A   Partly Cloudy
5:00 AM 75 °F - 73 °F 91% 29.93 in 10 mi Calm Calm - -   Partly Cloudy
5:00 AM 75.2 °F - 73.4 °F 94% 29.92 in 6.2 mi Calm Calm - N/A   Scattered Clouds
8:00 AM 76 °F - 73 °F 88% 29.96 in 10 mi Calm Calm - -   Scattered Clouds
8:00 AM 75.2 °F - 73.4 °F 94% 29.95 in 6.2 mi Calm Calm - N/A   Partly Cloudy
9:00 AM 82.4 °F 90.9 °F 77.0 °F 84% 29.95 in 6.2 mi Calm Calm - N/A   Partly Cloudy
10:00 AM 86.0 °F 99.3 °F 78.8 °F 79% 29.98 in 6.2 mi ESE 6.9 mph - N/A   Partly Cloudy
11:00 AM 89 °F - 76 °F 58% 29.96 in 10 mi ESE 4.5 mph - -   Scattered Clouds
11:00 AM 87.8 °F 99.7 °F 77.0 °F 70% 29.95 in 6.2 mi ESE 4.6 mph - N/A   Partly Cloudy
12:00 PM 87.8 °F 99.7 °F 77.0 °F 70% 29.92 in 6.2 mi ENE 6.9 mph - N/A   Partly Cloudy
1:00 PM 89.6 °F 99.8 °F 75.2 °F 62% 29.89 in 6.2 mi NE 11.5 mph - N/A   Partly Cloudy
2:00 PM 90 °F - 78 °F 61% 29.90 in 10 mi East 8.9 mph - -   Scattered Clouds
2:00 PM 89.6 °F 104.7 °F 78.8 °F 70% 29.89 in 6.2 mi East 9.2 mph - N/A   Partly Cloudy
3:00 PM 89.6 °F 104.7 °F 78.8 °F 70% 29.89 in 6.2 mi East 11.5 mph - N/A   Partly Cloudy
4:00 PM 87.8 °F 102.5 °F 78.8 °F 75% 29.86 in 6.2 mi East 13.8 mph - N/A   Partly Cloudy
5:00 PM 86 °F - 78 °F 70% 29.87 in 10 mi East 11.2 mph - -   Scattered Clouds
5:00 PM 86.0 °F 96.9 °F 77.0 °F 74% 29.86 in 6.2 mi East 11.5 mph - N/A   Partly Cloudy
6:00 PM 84.2 °F 94.1 °F 77.0 °F 79% 29.86 in 6.2 mi East 9.2 mph - N/A   Scattered Clouds
7:00 PM 82.4 °F 90.9 °F 77.0 °F 84% 29.98 in 6.2 mi East 11.5 mph - N/A   Scattered Clouds
8:00 PM 82 °F - 75 °F 75% 29.91 in 10 mi East 4.5 mph - -   Scattered Clouds
8:00 PM 82.4 °F 89.5 °F 75.2 °F 79% 29.89 in 6.2 mi East 4.6 mph - N/A   Partly Cloudy
9:00 PM - - - N/A% - - North - - N/A   Unknown
11:00 PM 79 °F - 76 °F 86% 29.96 in 10 mi ESE 6.7 mph - -   Partly Cloudy
11:00 PM 78.8 °F - 75.2 °F 89% 29.95 in 6.2 mi ESE 6.9 mph - N/A   Scattered Clouds